Location: Étavigny
(49.1201°N, 2.9800°E)
Time: 19:42:37
(UTC+00:00)

deb Kosmos- 1791 - Visible Passes

Search period start: 27 February 2024 00:00
Search period end: 08 March 2024 00:00
Orbit: 814 x 853 km, 82.9° (Epoch: 26 February)

Date Brightness Start Highest point End Pass type
(mag) Time Alt. Az. Time Alt. Az. Time Alt. Az.
27 Feb ? 04:44:12 10° NNE 04:47:33 16° ENE 04:50:54 10° E visible
27 Feb ? 17:56:19 10° ESE 17:59:34 16° E 18:02:50 10° NE visible
27 Feb ? 19:35:39 10° S 19:41:08 82° W 19:46:44 10° N visible
27 Feb ? 21:21:26 10° W 21:24:28 15° WNW 21:27:31 10° NNW visible
28 Feb ? 04:27:41 10° NNE 04:30:22 13° ENE 04:33:02 10° E visible
28 Feb ? 19:18:38 10° S 19:24:08 84° E 19:29:44 10° N visible
28 Feb ? 21:03:40 10° WSW 21:07:16 17° WNW 21:10:54 10° NNW visible
29 Feb ? 04:11:27 10° NE 04:13:08 11° NE 04:14:49 10° ENE visible
29 Feb ? 05:51:09 10° N 05:56:46 61° ENE 06:02:20 10° SSE visible
29 Feb ? 19:01:40 10° S 19:07:07 71° E 19:12:41 10° NNE visible
29 Feb ? 20:46:03 10° WSW 20:50:06 20° WNW 20:54:11 10° NNW visible
01 Mar ? 05:34:11 10° N 05:39:41 51° ENE 05:45:10 10° SSE visible
01 Mar ? 18:44:44 10° S 18:50:07 59° E 18:55:36 10° NNE visible
01 Mar ? 20:28:30 10° WSW 20:32:55 24° WNW 20:37:23 10° NNW visible
02 Mar ? 05:17:14 10° N 05:22:36 43° ENE 05:27:57 10° SE visible
02 Mar ? 18:27:51 10° SSE 18:33:08 49° E 18:38:30 10° NNE visible
02 Mar ? 20:11:03 10° SW 20:15:45 28° WNW 20:20:32 10° N visible
03 Mar ? 05:00:16 10° N 05:05:29 37° ENE 05:10:40 10° SE visible
03 Mar ? 18:11:02 10° SSE 18:16:09 41° E 18:21:21 10° NNE visible
03 Mar ? 19:53:39 10° SW 19:58:36 33° WNW 20:03:38 10° N visible
04 Mar ? 04:43:21 10° N 04:48:20 31° ENE 04:53:18 10° SE visible
04 Mar ? 19:36:18 10° SW 19:41:27 39° WNW 19:46:41 10° N visible
05 Mar ? 04:26:26 10° N 04:31:10 27° ENE 04:35:52 10° SE visible
05 Mar ? 19:19:01 10° SSW 19:24:18 46° WNW 19:29:43 10° N visible
06 Mar ? 04:09:34 10° NNE 04:13:58 23° ENE 04:18:21 10° ESE visible
06 Mar ? 19:01:46 10° SSW 19:07:10 55° WNW 19:12:42 10° N visible
07 Mar ? 03:52:44 10° NNE 03:56:45 19° ENE 04:00:44 10° ESE visible
07 Mar ? 05:34:07 10° NNW 05:39:47 77° W 05:45:23 10° S visible
07 Mar ? 18:44:33 10° SSW 18:50:03 66° WNW 18:55:40 10° N visible
07 Mar ? 20:31:31 10° W 20:33:37 12° WNW 20:35:43 10° NW visible
